TimeCST,TemperatureF,Dew PointF,Humidity,Sea Level PressureIn,VisibilityMPH,Wind Direction,Wind SpeedMPH,Gust SpeedMPH,PrecipitationIn,Events,Conditions,WindDirDegrees,DateUTC
12:10 AM,14.5,7.5,74,30.21,10.0,Calm,Calm,-,N/A,,Overcast,0,2010-01-30 06:10:00
12:30 AM,14.5,7.7,74,30.20,10.0,Calm,Calm,-,N/A,,Overcast,0,2010-01-30 06:30:00
12:50 AM,14.4,7.3,74,30.19,10.0,East,3.5,-,N/A,,Overcast,90,2010-01-30 06:50:00
1:10 AM,14.5,7.5,74,30.19,10.0,Calm,Calm,-,N/A,,Overcast,0,2010-01-30 07:10:00
1:30 AM,14.5,7.5,74,30.20,10.0,NE,3.5,-,N/A,,Overcast,40,2010-01-30 07:30:00
1:50 AM,14.5,7.9,75,30.20,10.0,Calm,Calm,-,N/A,,Overcast,0,2010-01-30 07:50:00
2:10 AM,14.5,7.9,75,30.20,10.0,Calm,Calm,-,N/A,,Overcast,0,2010-01-30 08:10:00
2:30 AM,14.0,7.7,76,30.20,10.0,Calm,Calm,-,N/A,,Mostly Cloudy,0,2010-01-30 08:30:00
2:50 AM,13.8,7.7,77,30.20,10.0,Calm,Calm,-,N/A,,Scattered Clouds,0,2010-01-30 08:50:00
3:10 AM,13.6,7.5,77,30.19,10.0,Calm,Calm,-,N/A,,Clear,0,2010-01-30 09:10:00
3:30 AM,13.5,7.5,77,30.19,10.0,Calm,Calm,-,N/A,,Clear,0,2010-01-30 09:30:00
3:50 AM,13.5,7.7,78,30.18,10.0,Calm,Calm,-,N/A,,Clear,0,2010-01-30 09:50:00
4:10 AM,13.5,7.5,77,30.18,10.0,Calm,Calm,-,N/A,,Mostly Cloudy,0,2010-01-30 10:10:00
4:30 AM,13.5,7.3,77,30.17,10.0,Calm,Calm,-,N/A,,Overcast,0,2010-01-30 10:30:00
4:50 AM,13.5,7.5,77,30.18,10.0,Calm,Calm,-,N/A,,Overcast,0,2010-01-30 10:50:00
5:10 AM,12.9,7.2,78,30.18,10.0,East,3.5,-,N/A,,Scattered Clouds,100,2010-01-30 11:10:00
5:30 AM,12.6,6.8,78,30.18,10.0,Calm,Calm,-,N/A,,Scattered Clouds,0,2010-01-30 11:30:00
5:50 AM,12.0,6.4,78,30.18,10.0,Calm,Calm,-,N/A,,Clear,0,2010-01-30 11:50:00
6:10 AM,12.2,6.8,79,30.18,10.0,Calm,Calm,-,N/A,,Clear,0,2010-01-30 12:10:00
6:30 AM,11.3,6.4,81,30.17,10.0,Calm,Calm,-,N/A,,Clear,0,2010-01-30 12:30:00
6:50 AM,11.1,5.9,80,30.17,10.0,Calm,Calm,-,N/A,,Clear,0,2010-01-30 12:50:00
7:10 AM,10.9,5.9,80,30.18,10.0,Calm,Calm,-,N/A,,Clear,0,2010-01-30 13:10:00
7:30 AM,11.3,6.3,80,30.19,10.0,Calm,Calm,-,N/A,,Clear,0,2010-01-30 13:30:00
7:50 AM,10.6,5.9,81,30.20,10.0,Calm,Calm,-,N/A,,Scattered Clouds,0,2010-01-30 13:50:00
8:10 AM,10.4,6.6,85,30.20,10.0,Calm,Calm,-,N/A,,Clear,0,2010-01-30 14:10:00
8:30 AM,11.3,7.3,84,30.21,10.0,Calm,Calm,-,N/A,,Clear,0,2010-01-30 14:30:00
8:50 AM,13.1,7.7,79,30.21,10.0,Calm,Calm,-,N/A,,Clear,0,2010-01-30 14:50:00
9:10 AM,15.3,9.0,76,30.21,10.0,SSE,4.6,-,N/A,,Scattered Clouds,160,2010-01-30 15:10:00
9:30 AM,15.4,8.6,74,30.22,10.0,South,3.5,-,N/A,,Overcast,170,2010-01-30 15:30:00
9:50 AM,16.2,8.8,73,30.22,10.0,South,3.5,-,N/A,,Overcast,170,2010-01-30 15:50:00
10:10 AM,18.0,9.9,71,30.22,10.0,SSW,4.6,-,N/A,,Mostly Cloudy,210,2010-01-30 16:10:00
10:30 AM,18.9,10.2,69,30.22,10.0,South,4.6,-,N/A,,Mostly Cloudy,190,2010-01-30 16:30:00
10:50 AM,20.5,11.1,67,30.22,10.0,SSW,4.6,-,N/A,,Scattered Clouds,200,2010-01-30 16:50:00
11:10 AM,21.9,11.3,64,30.20,10.0,South,4.6,-,N/A,,Mostly Cloudy,170,2010-01-30 17:10:00
11:30 AM,23.0,11.3,61,30.20,10.0,SSW,4.6,-,N/A,,Overcast,210,2010-01-30 17:30:00
11:50 AM,23.7,10.4,57,30.20,10.0,SSW,3.5,-,N/A,,Overcast,200,2010-01-30 17:50:00
12:10 PM,24.6,9.9,54,30.19,10.0,SW,5.8,-,N/A,,Overcast,220,2010-01-30 18:10:00
12:30 PM,26.2,9.5,49,30.18,10.0,WSW,6.9,-,N/A,,Overcast,240,2010-01-30 18:30:00
12:50 PM,26.6,9.5,49,30.17,10.0,WSW,3.5,-,N/A,,Overcast,240,2010-01-30 18:50:00
1:10 PM,27.5,9.5,47,30.16,10.0,WSW,6.9,-,N/A,,Overcast,240,2010-01-30 19:10:00
1:30 PM,28.2,8.2,43,30.16,10.0,West,5.8,-,N/A,,Overcast,260,2010-01-30 19:30:00
1:50 PM,29.5,8.8,42,30.14,10.0,SW,5.8,-,N/A,,Overcast,220,2010-01-30 19:50:00
2:10 PM,30.2,10.6,44,30.14,10.0,Calm,Calm,-,N/A,,Overcast,0,2010-01-30 20:10:00
2:30 PM,31.3,11.7,44,30.14,10.0,SW,6.9,-,N/A,,Scattered Clouds,230,2010-01-30 20:30:00
2:50 PM,32.2,13.1,45,30.13,10.0,West,5.8,-,N/A,,Clear,260,2010-01-30 20:50:00
3:10 PM,32.2,13.1,45,30.13,10.0,WSW,6.9,-,N/A,,Clear,240,2010-01-30 21:10:00
3:30 PM,33.1,14.0,46,30.14,10.0,Calm,Calm,-,N/A,,Clear,0,2010-01-30 21:30:00
3:50 PM,33.6,14.7,46,30.15,10.0,WSW,3.5,-,N/A,,Clear,250,2010-01-30 21:50:00
4:10 PM,34.0,15.1,46,30.14,10.0,SW,4.6,-,N/A,,Clear,230,2010-01-30 22:10:00
4:30 PM,34.0,15.4,47,30.13,10.0,West,3.5,-,N/A,,Clear,260,2010-01-30 22:30:00
4:50 PM,34.0,15.6,47,30.12,10.0,SSW,3.5,-,N/A,,Clear,200,2010-01-30 22:50:00
5:10 PM,33.8,17.1,50,30.13,10.0,Calm,Calm,-,N/A,,Clear,0,2010-01-30 23:10:00
5:30 PM,32.5,17.6,54,30.13,10.0,Calm,Calm,-,N/A,,Clear,0,2010-01-30 23:30:00
5:50 PM,32.0,18.0,56,30.13,10.0,Calm,Calm,-,N/A,,Clear,0,2010-01-30 23:50:00
6:10 PM,32.0,16.5,53,30.14,10.0,ESE,3.5,-,N/A,,Clear,110,2010-01-31 00:10:00
6:30 PM,30.9,16.7,56,30.14,10.0,Calm,Calm,-,N/A,,Clear,0,2010-01-31 00:30:00
6:50 PM,29.7,16.5,58,30.14,10.0,ESE,4.6,-,N/A,,Clear,120,2010-01-31 00:50:00
7:10 PM,28.8,16.5,60,30.14,10.0,ESE,4.6,-,N/A,,Clear,110,2010-01-31 01:10:00
7:30 PM,28.8,16.2,59,30.15,10.0,East,3.5,-,N/A,,Clear,100,2010-01-31 01:30:00
7:50 PM,28.2,16.5,62,30.15,10.0,East,4.6,-,N/A,,Clear,90,2010-01-31 01:50:00
8:10 PM,27.3,16.5,64,30.15,10.0,East,4.6,-,N/A,,Clear,100,2010-01-31 02:10:00
8:30 PM,26.6,16.0,64,30.15,10.0,ESE,3.5,-,N/A,,Clear,110,2010-01-31 02:30:00
8:50 PM,25.5,16.2,68,30.14,10.0,ESE,4.6,-,N/A,,Clear,120,2010-01-31 02:50:00
9:10 PM,25.0,15.8,68,30.15,10.0,ESE,3.5,-,N/A,,Clear,120,2010-01-31 03:10:00
9:30 PM,24.4,15.8,70,30.15,10.0,SSE,4.6,-,N/A,,Clear,150,2010-01-31 03:30:00
9:50 PM,23.7,16.2,73,30.16,10.0,SSE,5.8,-,N/A,,Clear,150,2010-01-31 03:50:00
10:10 PM,24.8,17.2,73,30.16,10.0,ESE,3.5,-,N/A,,Clear,110,2010-01-31 04:10:00
10:30 PM,23.7,16.9,75,30.16,10.0,SSE,4.6,-,N/A,,Clear,150,2010-01-31 04:30:00
10:50 PM,24.3,18.5,79,30.17,10.0,Calm,Calm,-,N/A,,Clear,0,2010-01-31 04:50:00
11:10 PM,23.0,18.1,82,30.17,10.0,Calm,Calm,-,N/A,,Clear,0,2010-01-31 05:10:00
11:30 PM,21.9,17.8,84,30.17,10.0,Calm,Calm,-,N/A,,Clear,0,2010-01-31 05:30:00
11:50 PM,18.5,15.3,87,30.17,10.0,Calm,Calm,-,N/A,,Clear,0,2010-01-31 05:50:00